GFSNIL_prec_cloud_003.txt.gz
Cloud_Cover
5 5 64 100 100 100 100 100 100 100 100 100 100 100 100 100 100 100 100 100 87 29
48 85 99 80 100 100 100 100 100 100 100 100 100 100 100 100 100 100 100 100 100 99
100 100 100 94 100 100 100 100 100 100 100 100 100 100 100 100 100 100 100 100 100 100
100 100 100 100 100 100 100 100 100 100 100 100 100 100 100 100 100 100 97 99 100 77
100 100 100 100 100 100 100 100 100 100 100 100 100 100 100 100 99 86 100 100 100 100
85 98 96 100 92 100 100 100 100 100 100 100 100 100 100 100 100 100 100 99 7 5
100 89 67 71 12 83 98 98 100 100 100 100 100 100 100 100 100 80 11 8 34 16
6 9 5 5 21 100 98 92 100 99 81 86 100 100 100 43 6 35 6 6 13 27
100 100 100 100 100 100 100 88 95 100 100 100 100 24 4 5 5 5 5 5 5 5
100 100 100 100 100 100 100 100 100 100 98 38 0 0 4 5 5 5 5 5 5 5
100 100 100 100 100 100 100 100 100 66 5 0 2 5 2 4 5 5 5 5 5 5
81 100 100 100 100 100 74 83 48 5 0 3 5 5 5 5 68 28 7 11 28 55
100 100 91 100 100 32 37 41 5 2 5 5 5 5 5 36 100 97 87 99 100 100
100 100 100 99 53 49 55 5 5 5 5 5 5 5 5 98 100 100 100 100 96 87

GFSNIL_prec_cloud_006.txt.gz
Cloud_Cover
5 5 5 5 12 17 21 94 95 100 100 100 100 87 100 99 100 100 99 71 68 81
5 6 56 51 40 60 100 100 100 100 100 100 100 100 100 100 100 100 100 100 100 100
6 5 5 5 5 12 93 100 100 100 100 100 100 100 100 100 100 100 100 100 100 100
5 5 5 5 5 62 99 100 100 100 100 100 100 100 100 100 100 100 100 100 100 100
5 5 21 5 50 100 100 100 51 84 100 100 100 100 100 100 100 100 100 100 96 82
5 78 84 23 99 100 100 100 100 100 100 100 99 100 100 100 100 100 100 100 100 99
15 95 95 90 52 100 100 100 100 100 100 100 100 100 100 100 100 100 100 85 25 8
65 100 95 97 82 100 100 100 100 100 100 100 100 100 100 100 40 10 5 5 4 2
100 100 100 100 100 100 100 100 100 100 100 100 100 99 11 5 5 5 5 5 2 4
97 100 100 100 100 100 100 100 100 100 100 100 90 28 5 4 3 5 5 5 5 5
94 100 100 100 100 100 100 100 100 100 89 65 28 3 4 5 5 5 5 5 7 32
53 96 90 99 94 88 88 100 61 49 63 11 5 5 5 5 5 5 9 16 35 78
100 99 97 100 100 100 98 40 35 34 5 5 5 5 5 33 98 92 90 82 85 100
100 100 100 100 100 97 63 33 5 16 5 5 5 5 5 90 100 91 98 100 92 94

GFSNIL_prec_cloud_009.txt.gz
Cloud_Cover
5 2 3 0 0 0 0 0 0 1 15 94 98 100 100 100 100 100 100 100 100 100
3 5 0 0 0 0 0 0 5 5 13 99 100 100 100 100 100 100 100 100 100 100
3 0 0 0 0 2 4 8 40 73 97 97 100 100 100 100 100 100 100 100 100 100
0 0 0 2 5 5 36 92 100 90 98 100 100 100 100 100 100 100 100 100 100 100
1 5 5 5 60 90 100 100 100 84 76 98 100 100 100 100 100 100 100 100 100 100
0 0 5 50 100 97 100 100 100 100 91 99 100 88 62 31 46 81 98 100 100 100
5 5 65 100 100 99 100 100 100 100 100 100 100 100 100 100 88 97 100 100 100 100
63 83 100 77 100 100 100 100 100 100 100 100 100 99 81 100 100 100 100 100 100 15
100 100 100 100 100 100 100 100 100 100 100 100 100 100 100 79 100 100 88 6 0 5
87 81 100 100 100 100 100 100 100 100 100 100 100 100 100 94 62 5 5 5 5 5
100 100 100 100 100 100 100 100 100 100 100 100 100 99 50 10 5 5 5 5 5 16
100 100 100 100 100 100 100 100 91 100 100 100 100 37 6 5 5 5 5 8 22 90
100 100 100 100 100 100 100 100 100 98 100 70 63 5 5 5 85 98 95 100 96 86
85 98 55 100 100 99 100 96 58 35 34 6 5 5 5 66 100 98 100 81 74 90

GFSNIL_prec_cloud_012.txt.gz
Cloud_Cover
5 11 58 41 4 5 4 0 4 0 0 0 4 18 99 100 100 100 100 100 100 100
100 96 100 99 36 5 4 4 7 4 6 40 90 100 100 100 100 100 100 100 100 100
97 100 5 3 5 5 5 53 79 23 95 100 98 89 96 100 96 82 100 100 100 100
95 58 0 0 3 6 15 97 96 86 98 100 100 100 100 100 100 100 100 100 100 100
100 99 76 20 100 100 99 89 69 84 100 100 100 100 100 100 100 100 100 100 100 100
100 48 100 100 80 87 83 80 92 100 99 100 100 100 99 92 100 100 100 100 100 100
96 100 100 95 55 100 100 98 100 100 100 100 100 100 96 95 100 100 100 97 99 73
100 100 100 64 56 62 98 99 100 100 100 100 100 100 100 100 95 70 86 100 100 96
100 100 100 89 87 78 100 100 100 100 100 100 100 100 100 100 100 100 100 100 100 38
92 96 100 100 79 77 95 95 95 100 100 100 100 100 100 100 100 100 96 85 23 5
41 100 100 93 94 100 96 79 90 100 100 100 100 86 98 89 100 85 46 14 5 12
6 6 60 63 68 87 93 98 100 100 99 85 54 31 34 56 69 33 26 5 77 93
5 5 5 5 9 54 56 61 17 28 18 5 5 5 6 28 77 92 88 20 76 86
22 5 5 5 5 5 5 5 5 5 5 5 5 5 5 64 100 97 100 97 99 100

GFSNIL_prec_cloud_015.txt.gz
Cloud_Cover
99 87 88 12 95 97 94 61 58 18 5 23 14 32 82 100 100 100 100 100 100 100
89 39 64 91 100 100 95 22 5 5 5 93 100 100 100 99 95 96 100 100 100 100
95 88 100 100 68 38 72 97 90 68 100 98 99 100 100 100 97 100 100 100 100 100
95 88 96 46 65 32 24 65 63 49 46 88 100 100 100 100 100 100 100 100 100 100
100 99 100 100 91 71 96 35 94 90 94 100 100 100 100 100 100 100 100 100 100 100
100 84 66 96 99 93 83 100 100 87 88 100 100 100 100 100 100 100 100 100 100 100
96 27 89 100 100 97 99 100 100 87 100 99 100 100 100 100 100 96 100 100 100 100
97 100 100 98 98 100 100 100 100 88 100 100 100 100 96 99 100 100 100 100 100 81
100 98 22 5 5 55 61 100 100 100 100 100 100 99 99 97 85 100 100 100 100 100
38 5 63 49 88 5 5 5 5 5 5 5 14 56 80 97 83 81 92 100 100 100
41 22 5 5 6 5 5 5 8 46 27 5 5 5 5 15 56 96 100 79 99 100
17 5 23 5 5 5 5 5 5 18 5 5 5 2 5 43 98 99 96 99 99 98
80 63 5 5 5 5 5 5 5 5 5 5 5 5 7 85 100 100 100 100 100 99
77 56 5 5 5 5 5 5 5 5 5 8 5 6 51 92 100 100 100 100 100 99

GFSNIL_prec_cloud_018.txt.gz
Cloud_Cover
5 42 69 23 97 100 100 100 15 15 51 97 100 100 69 82 67 96 96 100 100 100
41 96 100 100 100 100 93 75 98 90 100 94 91 100 100 100 100 100 100 100 90 99
6 25 97 100 100 100 58 90 97 100 100 100 100 99 97 95 99 100 83 99 100 100
100 100 100 100 85 94 91 82 91 91 100 100 95 100 100 100 100 100 100 100 100 100
100 100 100 64 97 24 74 80 71 100 100 88 100 100 100 100 100 100 100 100 100 100
100 99 78 80 90 100 99 97 100 100 100 100 68 100 100 100 99 100 100 100 100 100
100 96 79 100 100 86 80 94 99 100 99 98 90 92 100 100 100 100 100 100 100 100
9 14 25 72 77 90 51 20 11 5 5 5 18 20 30 75 78 83 87 99 100 100
52 91 95 98 85 15 5 5 5 5 5 5 42 26 6 5 5 5 5 23 67 34
85 61 18 5 70 47 5 5 5 5 5 5 5 5 5 5 2 5 24 91 86 67
81 64 78 96 97 5 5 5 5 5 36 64 86 5 5 5 13 96 100 100 100 100
100 89 92 25 5 5 5 5 5 58 99 100 99 95 6 44 99 100 100 99 100 100
5 5 5 5 5 5 6 37 95 94 88 98 100 100 99 98 100 100 100 100 100 100
19 10 5 5 5 36 97 100 100 100 100 99 99 100 98 99 100 100 100 100 100 100

GFSNIL_prec_cloud_021.txt.gz
Cloud_Cover
95 99 91 81 71 41 88 72 11 7 65 100 100 100 100 100 100 73 87 63 94 100
100 92 100 99 93 80 100 100 100 100 100 100 100 100 100 89 100 81 61 89 99 99
100 90 56 92 100 100 94 99 97 100 94 100 100 100 100 100 100 100 100 100 100 100
61 100 100 84 22 59 78 100 100 100 100 89 100 96 83 84 99 97 100 98 100 100
100 71 8 53 32 100 100 46 76 62 100 100 100 100 96 96 81 100 100 100 100 99
70 82 33 93 18 93 51 27 42 78 92 100 100 84 32 90 96 100 100 100 100 100
12 99 86 61 68 92 87 100 90 86 53 9 5 5 5 5 5 5 76 92 99 100
90 100 98 99 100 100 96 84 14 8 5 5 5 49 5 1 5 5 5 5 5 41
95 87 100 100 100 99 30 5 5 5 5 5 28 64 5 3 2 5 5 6 31 78
86 100 100 100 96 54 5 5 5 5 36 95 100 81 5 5 5 5 43 100 100 100
99 98 100 100 100 96 41 66 94 100 100 100 100 70 8 5 29 97 100 100 100 100
36 100 100 100 100 100 100 100 100 96 69 81 100 100 67 53 98 100 100 100 100 100
100 100 100 100 100 100 100 100 23 11 61 100 98 100 100 39 100 98 100 100 100 100
96 100 100 100 100 100 100 76 53 26 66 98 99 100 98 100 100 100 100 100 99 100

GFSNIL_prec_cloud_024.txt.gz
Cloud_Cover
100 100 100 82 100 100 100 100 100 98 81 100 100 66 91 100 100 83 93 92 93 27
100 100 100 100 95 50 6 5 5 5 5 12 98 68 100 85 100 90 40 99 100 100
100 100 73 6 3 2 4 3 5 50 5 7 92 100 25 59 93 6 6 98 100 100
5 3 18 27 5 5 5 5 5 5 8 96 82 97 100 100 98 98 7 10 100 100
5 5 5 5 2 5 5 46 44 24 27 68 58 47 100 97 7 5 5 5 16 98
5 5 5 2 5 5 5 5 14 92 82 67 67 5 32 5 38 6 4 0 1 5
5 5 5 3 5 5 8 31 6 5 5 5 5 5 5 13 5 2 3 5 2 3
4 82 5 3 5 5 95 79 5 5 5 5 5 7 72 14 5 5 0 0 0 3
96 100 80 8 5 59 5 5 5 5 5 5 54 63 5 5 5 5 5 5 2 5
68 5 5 5 5 43 5 5 24 48 96 45 5 5 5 5 5 5 5 5 13 6
100 57 5 3 8 34 5 40 64 100 91 5 5 5 5 5 10 5 5 51 22 5
100 100 48 5 80 100 78 81 99 90 42 5 5 5 36 89 55 5 5 5 19 93
49 84 97 93 100 100 100 100 98 40 5 5 5 72 100 100 98 85 80 68 99 91
5 28 93 99 100 100 100 100 83 17 5 5 30 99 98 85 85 100 98 99 96 99

GFSNIL_prec_cloud_027.txt.gz
Cloud_Cover
93 100 98 100 44 39 11 5 5 4 2 4 2 5 5 27 100 100 99 61 6 61
94 61 100 100 100 39 5 0 4 5 5 9 5 5 7 99 96 77 54 69 71 37
100 94 52 20 5 3 5 5 1 5 5 40 51 38 10 5 5 5 96 100 100 100
14 5 5 5 5 4 1 0 0 5 5 5 5 8 5 64 12 86 42 19 5 3
12 5 1 0 0 0 0 5 5 5 9 97 86 59 46 5 5 5 5 59 36 6
0 0 0 0 0 0 0 1 5 5 5 5 5 5 5 5 16 55 100 100 93 14
21 22 4 3 34 43 3 0 3 0 0 5 3 5 5 41 46 10 5 4 3 0
69 13 59 51 48 62 78 5 89 0 0 5 5 38 69 10 5 0 4 5 5 1
45 70 82 100 100 100 100 27 73 13 17 66 62 30 5 5 5 5 5 5 0 1
5 7 6 90 100 100 100 73 100 5 52 99 22 100 5 5 5 5 5 12 4 0
22 99 92 100 86 100 100 100 100 70 100 37 94 5 4 5 5 5 36 44 28 5
0 4 2 98 96 100 100 100 100 100 83 42 9 5 5 5 16 58 10 50 78 47
0 3 39 58 98 100 100 91 100 31 5 5 5 5 5 22 56 53 80 95 100 100
3 5 28 99 100 100 100 88 5 5 5 5 5 5 72 82 98 100 97 100 100 100